COSMOS 2428 - Orbit

View from above orbital plane
View from above orbital plane
View from above satellite
View from above satellite

Ground track
Ground track

The orbit data is extracted from the following two-line orbital elements,

1 31792U 07029A   13169.26726328  .00000136  00000-0  10000-3 0  6234
2 31792 070.9571 232.3777 0010723 316.9254 154.2649 14.12303956307934
Epoch (UTC): 18 June 2013 06:24:51
Eccentricity: 0.0010723
inclination: 70.9571°
perigee height: 844 km
apogee height: 859 km
right ascension of ascending node: 232.3777°
argument of perigee: 316.9254°
revolutions per day: 14.12303956
mean anomaly at epoch: 154.2649°
orbit number at epoch: 30793

The dashed part of the orbit path shows where the satellite is in the earth's shadow,  

Developed and maintained by Chris Peat, Heavens-Above GmbH. Please read the updated FAQ before sending e-mail. Imprint. DLR